www.pogodaiklimat.ru
Время
(UTC), дата
10 11.10
11 11.10
12 11.10
13 11.10
14 11.10
15 11.10
16 11.10
17 11.10
18 11.10
19 11.10
20 11.10
21 11.10
00 12.10
03 12.10
04 12.10
05 12.10
06 12.10
07 12.10
08 12.10
09 12.10
10 12.10
11 12.10
12 12.10
13 12.10
14 12.10
15 12.10
16 12.10
17 12.10
18 12.10
19 12.10
20 12.10
21 12.10
00 13.10
03 13.10
04 13.10
05 13.10
06 13.10
07 13.10
08 13.10
09 13.10
10 13.10
11 13.10
12 13.10
13 13.10
14 13.10
15 13.10
16 13.10
17 13.10
18 13.10
19 13.10
20 13.10
21 13.10
00 14.10
03 14.10
04 14.10
05 14.10
06 14.10
07 14.10
08 14.10
09 14.10
10 14.10
11 14.10
12 14.10
13 14.10
14 14.10
15 14.10
16 14.10
17 14.10
18 14.10
19 14.10
20 14.10
21 14.10
00 15.10
03 15.10
04 15.10
05 15.10
06 15.10
07 15.10
08 15.10
09 15.10
10 15.10
11 15.10
12 15.10
13 15.10
14 15.10
15 15.10
16 15.10
17 15.10
18 15.10
19 15.10
20 15.10
21 15.10
00 16.10
03 16.10
04 16.10
05 16.10
06 16.10
07 16.10
08 16.10
09 16.10
10 16.10
11 16.10
12 16.10
13 16.10
14 16.10
15 16.10
16 16.10
17 16.10
18 16.10
19 16.10
20 16.10
21 16.10
00 17.10
03 17.10
04 17.10
05 17.10
06 17.10
07 17.10
08 17.10
09 17.10
10 17.10
11 17.10
12 17.10
13 17.10
14 17.10
15 17.10
16 17.10
17 17.10
18 17.10
19 17.10
20 17.10
21 17.10
00 18.10
03 18.10
04 18.10
05 18.10
06 18.10
Ветер
(напр.,м/с)
Видим. Явления Облачность Т
(С)
Тd
(С)
f
(%)
Тe
(С)
Тes
(С)
Комфортность P
(гПа)
Po
(гПа)
Тmin
(С)
Tmax
(С)
R
(мм)
R24
(мм)
S
(см)
В 2 8000 м дымка 8/8 600 м
[St]
+13.2 +10.5 84 +12 +14 тепло 1026.5 1011.1
В 1 8000 м дымка 10/10 600 м
[Sc]
+13.3 +10.6 84 +13 +13 тепло 1026.1 1010.7
В 2 8000 м 9/9 600 м
[Sc]
+13.8 +10.4 80 +13 +14 прохладно 1025.7 1010.3
Ю 1 8000 м дымка 10/10 600 м
[Sc]
+13.9 +10.5 80 +14 +14 прохладно 1025.3 1009.9
В 2 8000 м дымка 10/10 600 м
[Sc]
+13.8 +10.8 82 +13 +13 прохладно 1024.8 1009.4
Ю 1 8000 м дымка 8/8 600 м
[Sc]
+13.9 +10.1 78 +14 +14 по сезону 1023.9 1008.6
Ю 1 8000 м дымка 8/8 1000 м
[Sc]
+13.7 +10.5 81 +14 +14 по сезону 1023.7 1008.4
ЮЗ 1 8000 м дымка 9/9 1000 м
[Sc]
+13.6 +10.2 80 +14 +14 по сезону 1023.7 1008.3
ЮЗ 1 8000 м дымка 10/10 1000 м
[Sc]
+13.5 +9.9 79 +14 +14 тепло 1023.8 1008.4 +14.2
Ю 1 15 км 9/5 600 м
[Sc Ac trans]
+12.9 +10.2 84 +13 +13 по сезону 1023.8 1008.4
Ю 1 15 км 3/0
[Ac trans]
+12.0 +10.0 88 +12 +12 по сезону 1023.8 1008.4
З 1 15 км 8/5 600 м
[Sc Ac trans]
+11.9 +10.4 91 +12 +12 по сезону 1023.7 1008.3
Ю 1 20 км ясно +11.1 +9.8 92 +11 +11 по сезону 1023.1 1007.6
ЮЗ 2 10 км 10/10 300 м
[St]
+11.6 +10.7 94 +10 +10 по сезону 1022.5 1007.1
ЮЗ 2 5000 м дымка 10/10 200 м
[St]
+11.4 +10.7 95 +10 +10 по сезону 1022.3 1006.9
ЮЗ 2 4000 м дымка 10/10 200 м
[St]
+11.5 +10.8 95 +10 +10 тепло 1022.3 1006.9
Ю 1 600 м туман ?/? +10.9 +10.5 97 +10 +10 по сезону 1022.5 1007.0 +8.9
Ю 2 600 м туман ?/? +10.8 +10.4 97 +9 +9 по сезону 1022.6 1007.1
Ю 2 800 м туман ?/? +11.4 +10.5 94 +10 +10 тепло 1022.9 1007.4
ЮВ 1 2000 м в посл. час туман 8/8 300 м
[St]
+13.4 +11.1 86 +14 +15 тепло 1022.7 1007.4
Ю 1 20 км 3/1 300 м
[St Ac trans Ci fib]
+16.6 +11.8 73 +17 +24 тепло 1022.6 1007.4
З 2 25 км 1/0
[Ci fib]
+19.3 +11.3 60 +21 +28 комфорт 1021.6 1006.6
ЮЗ 3 40 км 1/0
[Ci fib]
+20.9 +10.9 53 +23 +29 комфорт 1020.8 1005.9
Ю 3 40 км ясно +22.2 +11.3 50 +24 +28 комфорт 1020.6 1005.7
ЮЗ 3 40 км ясно +22.8 +10.9 47 +25 +27 комфорт 1020.2 1005.4
ЮЗ 2 40 км ясно +21.9 +11.3 51 +24 +25 комфорт 1020.0 1005.1
Ю 2 30 км ясно +20.5 +11.6 57 +23 +23 комфорт 1020.0 1005.1
ЮЗ 2 25 км ясно +18.6 +11.8 65 +20 +20 тепло 1020.5 1005.5
ЮЗ 1 20 км ясно +17.3 +11.9 71 +18 +18 тепло 1020.9 1005.8 +23.0
Ю 1 20 км ясно +15.9 +12.1 78 +17 +17 тепло 1021.0 1005.8
ЮЗ 1 20 км ясно +15.4 +11.8 79 +16 +16 тепло 1021.4 1006.2
ЮЗ 1 20 км ясно +14.3 +11.7 84 +15 +15 тепло 1021.6 1006.3
Ю 1 15 км 3/0
[Ac trans]
+12.9 +11.5 91 +13 +13 тепло 1021.7 1006.3
штиль 0 15 км 4/0
[Ac trans Ci fib]
+11.6 +10.3 92 +11 +11 тепло 1020.7 1005.3
З 1 15 км 4/0
[Ci fib]
+12.5 +10.7 89 +12 +12 тепло 1020.8 1005.4
штиль 0 20 км 8/1 1000 м
[Sc Ac As Ci fib]
+10.0 +9.4 96 +9 +9 по сезону 1021.0 1005.5
З 1 25 км 8/3 1000 м
[Sc Ac As Ci sp]
+10.8 +10.2 96 +10 +10 тепло 1021.5 1006.0 +9.8
ЮЗ 1 25 км 8/0
[Ac As Ci sp]
+14.2 +11.8 85 +15 +15 тепло 1021.6 1006.3
Ю 1 30 км 6/1 1000 м
[Cu hum Ac As Ci sp]
+15.3 +11.9 80 +16 +18 тепло 1021.8 1006.6
Ю 2 30 км 4/1 1000 м
[Cu hum Ac trans Ci sp]
+18.0 +12.1 68 +19 +22 тепло 1021.7 1006.6
Ю 2 30 км 3/1 1000 м
[Cu hum Ci sp]
+19.8 +13.2 66 +22 +28 комфорт 1021.4 1006.4
Ю 2 30 км 3/1 1000 м
[Cu hum Ci fib]
+21.4 +13.1 59 +24 +30 комфорт 1021.0 1006.1
ЮЗ 2 30 км 8/0
[Ci sp]
+22.3 +13.4 57 +25 +31 комфорт 1020.3 1005.5
ЮЗ 1 30 км 9/0
[Ci sp]
+23.2 +13.4 54 +26 +31 жарко 1019.8 1005.0
ЮЗ 2 30 км 8/0
[Ci sp]
+23.4 +13.2 53 +27 +29 душно 1019.8 1005.0
З 1 30 км 8/0
[Ci sp]
+23.4 +13.2 53 +27 +28 душно 1019.8 1005.0
З 1 30 км 8/0
[Ci sp]
+21.4 +14.4 64 +24 +24 комфорт 1019.9 1005.0
С 1 20 км 3/0
[Ci sp]
+17.0 +15.0 88 +18 +18 тепло 1020.5 1005.4
З 1 20 км 1/0
[Ci sp]
+15.1 +13.9 93 +16 +16 тепло 1020.7 1005.5 +23.9
ЮЗ 1 20 км 1/0
[Ci fib]
+14.0 +13.1 94 +14 +14 тепло 1021.0 1005.7
ЮЗ 1 20 км 1/0
[Ci fib]
+15.2 +13.3 88 +16 +16 тепло 1021.0 1005.8
Ю 1 20 км ясно +15.6 +13.1 85 +16 +16 тепло 1021.2 1006.0
Ю 1 15 км 3/0
[Ci fib]
+14.4 +12.5 88 +15 +15 тепло 1021.3 1006.0
ЮЗ 1 15 км 3/0
[Ci fib]
+13.6 +12.4 92 +14 +14 тепло 1020.7 1005.4
С 1 20 км 3/0
[Ci fib]
+11.2 +10.1 93 +11 +11 тепло 1020.8 1005.4
штиль 0 20 км 5/0
[Ci sp]
+10.3 +9.7 96 +9 +9 тепло 1020.7 1005.2
С 1 25 км 8/0
[Ac trans Ci sp]
+10.3 +9.7 96 +10 +10 тепло 1020.9 1005.4 +9.8
штиль 0 15 км 9/0
[Ci sp]
+11.5 +10.6 94 +11 +12 тепло 1021.2 1005.8
В 1 12 км 9/0
[Ci sp]
+13.7 +11.2 85 +14 +17 тепло 1021.1 1005.8
Ю 1 12 км 9/0
[Ci sp]
+17.6 +12.7 73 +19 +23 тепло 1020.7 1005.6
Ю 1 15 км 9/0
[Ci sp]
+19.8 +12.7 64 +23 +29 комфорт 1020.4 1005.4
Ю 2 20 км 9/0
[Ci sp]
+20.9 +12.9 60 +24 +30 комфорт 1019.7 1004.8
Ю 1 25 км 10/0
[Ci sp]
+21.8 +13.2 58 +24 +30 комфорт 1018.9 1004.1
ЮЗ 1 25 км 10/0
[Cs]
+21.8 +13.0 57 +24 +29 комфорт 1018.6 1003.8
ЮЗ 1 25 км 10/0
[Cs]
+21.9 +13.9 60 +25 +27 комфорт 1018.1 1003.3
З 1 25 км 10/0
[Cs]
+21.3 +13.9 63 +24 +25 комфорт 1017.7 1002.9
СЗ 1 20 км 10/0
[Cs]
+18.9 +15.7 82 +21 +21 комфорт 1017.8 1002.8
СЗ 1 15 км 8/0
[Ci sp]
+17.0 +15.0 88 +18 +18 тепло 1018.1 1003.0
С 1 15 км 8/0
[Ci sp]
+15.7 +14.2 91 +16 +16 тепло 1018.1 1003.0 +22.1
СЗ 1 15 км 8/0
[Ci sp]
+14.7 +13.7 94 +15 +15 тепло 1018.0 1002.8
СЗ 1 10 км 8/0
[Ci sp]
+13.6 +12.9 96 +14 +14 тепло 1018.1 1002.8
СЗ 1 10 км 6/0
[Ci sp]
+12.4 +11.8 96 +12 +12 тепло 1018.1 1002.8
ЮЗ 1 10 км ясно +11.2 +10.8 97 +11 +11 тепло 1017.9 1002.5
Ю 1 10 км ясно +9.4 +9.0 97 +9 +9 по сезону 1017.1 1001.6
С 1 10 км 1/0
[Ac trans]
+9.1 +8.7 97 +8 +8 по сезону 1017.0 1001.5
С 1 20 км 1/0
[Ac trans]
+9.1 +8.7 97 +8 +8 по сезону 1016.6 1001.1
В 1 25 км 3/0
[Ci sp]
+9.4 +9.0 97 +9 +9 по сезону 1016.8 1001.3 +8.7
З 2 30 км 5/0
[Ci sp]
+14.1 +11.8 86 +14 +15 тепло 1016.8 1001.6
З 1 35 км 4/0
[Ci fib]
+16.8 +11.7 72 +18 +21 тепло 1016.9 1001.8
ЮЗ 2 40 км 3/0
[Ac trans]
+18.5 +12.1 66 +20 +24 тепло 1016.4 1001.4
ЮЗ 3 40 км 3/1 1000 м
[Sc Ac trans]
+20.6 +12.9 61 +23 +27 комфорт 1016.0 1001.1
Ю 4 40 км 3/3 1000 м
[Cu Sc Ac trans]
+22.0 +12.5 55 +25 +28 комфорт 1015.2 1000.4
ЮЗ 3 40 км 4/3 1000 м
[Cu Sc Ac trans Ci fib]
+22.7 +13.5 56 +26 +29 жарко 1014.7 1000.0
ЮЗ 2 40 км 4/3 1000 м
[Cu med, cong Ac trans Ci fib]
+24.3 +13.8 52 +27 +30 жарко 1013.5 998.9
Ю 3 40 км 4/4 1000 м
[Cu med, cong]
+24.0 +13.2 51 +26 +27 жарко 1013.5 998.8
ЮЗ 3 40 км 3/1 1000 м
[Cu med, cong Ac trans]
+23.1 +12.7 52 +26 +27 жарко 1013.1 998.4
ЮЗ 2 35 км 3/3 1000 м
[Sc]
+21.6 +12.0 54 +24 +24 комфорт 1012.9 998.1
Ю 1 30 км 3/3 1000 м
[Sc]
+20.3 +12.3 60 +23 +23 комфорт 1013.0 998.2
СЗ 1 25 км 3/0
[Ci fib]
+15.3 +12.8 85 +16 +16 тепло 1013.5 998.4 +24.3
СЗ 1 20 км ясно +13.7 +12.3 91 +14 +14 тепло 1013.9 998.7
СЗ 1 20 км ясно +13.2 +12.1 93 +13 +13 тепло 1014.1 998.9
С 1 15 км ясно +12.2 +11.3 94 +12 +12 тепло 1014.2 998.9
СЗ 1 15 км ясно +11.1 +10.5 96 +11 +11 тепло 1013.8 998.5
С 1 15 км ясно +10.0 +9.4 96 +9 +9 тепло 1013.5 998.1
С 1 15 км 1/0
[Ac trans]
+9.9 +9.3 96 +9 +9 тепло 1013.7 998.3
С 1 15 км 8/3 1500 м
[Sc Ac trans]
+10.6 +10.2 97 +10 +10 тепло 1013.9 998.5
З 1 10 км слаб. дождь 9/8 1000 м
[Sc Ac trans]
+12.1 +11.2 94 +12 +12 тепло 1014.8 999.5 +9.7 0.0
СВ 1 15 км в посл. час дождь 10/10 1000 м
[Sc]
+13.4 +12.3 93 +14 +14 тепло 1015.1 999.9
В 1 12 км в посл. час дождь 10/10 1000 м
[Sc]
+13.6 +11.9 89 +14 +14 тепло 1015.6 1000.4
штиль 0 12 км в посл. час дождь 10/10 1000 м
[Sc]
+14.3 +12.6 90 +14 +14 тепло 1016.3 1001.1
ЮВ 1 12 км 10/10 1000 м
[Sc]
+15.4 +13.0 86 +16 +16 тепло 1016.4 1001.3
ЮВ 1 12 км 9/9 300 м
[St]
+17.1 +13.5 79 +18 +19 тепло 1016.2 1001.2
С 1 12 км слаб. дождь 10/10 1000 м
[Sc]
+17.6 +14.0 79 +19 +19 тепло 1016.2 1001.2 0.4
В 1 12 км в посл. час дождь 10/10 300 м
[St]
+17.9 +14.5 80 +19 +19 тепло 1016.2 1001.2
В 1 12 км 8/8 300 м
[St]
+18.0 +14.8 82 +19 +20 тепло 1016.2 1001.2
СВ 2 12 км 5/5 1000 м
[Sc]
+18.5 +14.3 77 +20 +20 тепло 1016.2 1001.2
В 3 10 км 5/5 1000 м
[Sc]
+16.6 +13.6 82 +16 +16 тепло 1017.0 1001.9
СВ 2 10 км 6/6 1000 м
[Sc]
+15.8 +14.1 90 +16 +16 тепло 1017.8 1002.7
СВ 2 10 км 5/5 1000 м
[Sc]
+15.2 +13.5 90 +15 +15 тепло 1018.4 1003.2 +18.9 0.6
С 1 10 км 1/1 1000 м
[Sc]
+14.1 +11.7 85 +14 +14 тепло 1018.7 1003.5
С 1 10 км ясно +13.0 +10.3 84 +13 +13 тепло 1019.0 1003.7
СЗ 1 12 км ясно +11.5 +9.8 89 +11 +11 тепло 1019.3 1003.9
штиль 0 10 км 3/0
[Ac trans]
+9.9 +9.1 95 +9 +9 тепло 1019.9 1004.4
С 1 15 км ясно +8.9 +8.5 97 +8 +8 по сезону 1019.4 1003.9
штиль 0 15 км 5/5 1000 м
[Sc]
+8.6 +8.2 97 +8 +8 тепло 1019.6 1004.0
штиль 0 10 км 8/5 1000 м
[Sc Ac trans]
+9.1 +8.7 97 +8 +8 тепло 1019.4 1003.9
штиль 0 6000 м дымка 8/8 1000 м
[Sc]
+9.3 +8.9 97 +8 +8 тепло 1019.7 1004.2 +8.4
С 1 3000 м дымка 10/10 600 м
[Sc]
+11.1 +10.7 97 +11 +11 тепло 1020.0 1004.6
З 1 3000 м дымка 10/10 600 м
[Sc]
+12.8 +12.3 97 +13 +13 тепло 1019.9 1004.6
Ю 1 3000 м дымка 10/10 600 м
[Sc]
+14.2 +12.6 90 +14 +14 тепло 1019.8 1004.6
Ю 1 3000 м дымка 10/10 300 м
[St]
+14.6 +12.5 87 +15 +15 тепло 1019.8 1004.6
Ю 2 5000 м дымка 10/10 600 м
[St]
+15.2 +12.8 86 +15 +15 тепло 1019.5 1004.3
В 1 10 км 8/6 1000 м
[Cu med, cong Ci fib]
+17.0 +13.3 79 +18 +20 тепло 1018.7 1003.6
ЮВ 1 30 км 8/1 1000 м
[Cu med, cong Ci sp]
+18.1 +12.6 70 +19 +23 тепло 1018.2 1003.2
С 1 30 км 3/0
[Ci sp]
+18.2 +12.0 67 +20 +22 тепло 1017.8 1002.8
ЮВ 1 30 км 1/0
[Ci sp]
+19.0 +12.3 65 +21 +22 комфорт 1017.6 1002.6
В 1 25 км ясно +17.0 +12.4 74 +18 +18 тепло 1017.7 1002.6
С 1 20 км ясно +14.0 +12.4 90 +14 +14 тепло 1017.8 1002.6
С 1 15 км ясно +12.8 +11.9 94 +13 +13 тепло 1017.9 1002.6 +19.3
С 1 15 км ясно +12.4 +11.5 94 +12 +12 тепло 1018.1 1002.8
С 1 15 км ясно +11.6 +10.9 95 +11 +11 тепло 1018.2 1002.8
штиль 0 15 км ясно +11.0 +10.4 96 +10 +10 тепло 1018.2 1002.8
штиль 0 15 км ясно +8.8 +8.6 99 +8 +8 тепло 1018.1 1002.6
З 1 15 км ясно +8.0 +7.8 99 +7 +7 по сезону 1017.6 1002.0
штиль 0 15 км ясно +7.4 +7.2 99 +6 +6 по сезону 1018.2 1002.6
С 1 15 км 3/0
[Ac trans]
+7.7 +7.3 97 +7 +7 тепло 1017.3 1001.7
Ю 1 25 км 4/3 1000 м
[Sc Ac trans]
+8.5 +8.1 97 +8 +8 тепло 1017.4 1001.9 +7.3
Местоположение метеостанции Загреб (Хорватия): широта 45.82 долгота 16.03 высота над уровнем моря 128 м.
В архиве по умолчанию представлена погода в Загребе за последнюю неделю. Архивные данные за месяц целиком и за предыдущие месяцы, начиная с января 2011 года, Вы можете получить, выбрав интересующий диапазон дат из раскрывающегося списка и нажав кнопку "Найти!".
*Определитесь, кто Вы:
Внимание! Время в таблицах - всемирное. Для получения местного времени необходимо прибавить поправку, которая равна 1 ч.
Смотрите также архив погоды в соседних городах и на ближайших метеорологических станциях:
Партнеры нашего сайта:      
Пояснения к столбцам:
  • Ветер - указаны скорость ветра в м/с - средняя за 10 мин, порывы в срок и между сроками (в фигурных скобках) и направление, откуда дует ветер: С - северный,
  • СВ - северо-восточный, В - восточный, ЮВ - юго-восточный, Ю - южный, ЮЗ - юго-западный, З - западный, СЗ - северо-западный.
  • Видимость - горизонтальная дальность видимости в метрах или километрах. При видимости от 1 до 10 км при отсутствии осадков обычно наблюдается дымка, при ухудшении видимости до 1 км и менее - туман. В сухую погоду видимость может ухудшаться дымом, пылью или мглою.
  • Явления - указаны атмосферные явления, наблюдавшиеся в срок или в последний час перед сроком; фигурными скобками обозначены явления, наблюдавшиеся между сроками (за 1-3 часа до срока); квадратными скобками обозначены град или гололедные отложения с указанием их диаметра в мм.
  • Облачность - указаны через наклонную черту общая и нижняя облачность в баллах и высота нижней границы облаков в метрах; квадратными скобками обозначены формы облаков: Ci - перистые, Cs - перисто-слоистые, Cc - перисто-кучевые, Ac - высококучевые, As - высокослоистые, Sc - слоисто-кучевые, Ns - слоисто-дождевые, Cu - кучевые, Cb - кучево-дождевые. Подробнее классификацию облаков см. в Атласе облаков (PDF).
  • T - Температура воздуха - температура, измеренная на высоте 2 м над землей.
  • Td - Температура точки росы - температура, при понижении до которой содержащийся в воздухе водяной пар достигнет насыщения.
  • f - Относительная влажность воздуха - влажноcть воздуха, измеренная на высоте 2 м над землей.
  • Te - Эффективная температура - температура, которую ощущает одетый по сезону человек в тени. Характеристика душности погоды. При расчете учитывается влияние влажности воздуха и скорости ветра на теплоощущения человека.
  • Tes - Эффективная температура на солнце - температура, которую ощущает человек, с поправкой на солнечный нагрев. Характеристика знойности погоды. Зависит от высоты солнца над горизонтом, облачности и скорости ветра. Ночью, в пасмурную погоду, а также при ветре 12 м/с и более поправка равна нулю.
  • P - Атмосферное давление - приведенное к уровню моря атмосферное давление.
  • Po - Атмосферное давление - измеренное на уровне метеостанции атмосферное давление.
  • Tmin - Минимальная температура - минимум температуры воздуха на высоте 2 м над землей.
  • Tmax - Максимальная температура - максимум температуры воздуха на высоте 2 м над землей.
  • R - Количество осадков - Количество выпавших осадков за период времени, мм. При наведении курсора мыши на число - период времени, за который выпало указанное количество осадков.
  • R24 - Количество осадков - Количество выпавших осадков за 24 часа, мм.
  • S - Снежный покров - Высота снежного покрова, см. При наведении курсора мыши на число - состояние снежного покрова и степень покрытия местности в баллах.